Theta_e
348 348 348 346 347 349 350 350 352 352 351 353 352 357 359 358 355 352 351 351 352 351 351 351 351 350 350 350 350 346 348 350 351 348 348 349 348 347 344 348 348 350 351
345 346 348 351 351 353 353 352 350 349 348 349 349 350 352 354 355 355 356 357 355 354 353 352 353 351 350 352 351 349 348 350 351 349 347 347 349 351 350 348 343 339 347
341 342 342 344 344 344 344 344 346 349 349 349 349 348 348 349 350 349 353 354 354 354 352 351 351 351 350 352 352 354 354 351 349 349 351 347 345 343 348 348 346 339 343
338 340 341 341 341 342 341 343 344 345 347 348 347 345 347 347 347 348 349 349 351 351 348 349 352 350 349 350 351 352 350 351 350 351 351 350 348 345 344 343 348 346 336
337 338 340 339 338 338 337 336 337 338 339 340 343 345 345 344 346 346 345 347 347 346 348 349 349 349 352 349 349 350 349 350 350 350 351 348 348 348 346 344 342 350 350
337 335 332 331 331 332 332 332 332 332 334 336 339 340 341 342 345 344 342 343 341 342 340 342 346 347 347 347 347 347 347 347 348 346 341 332 334 346 349 349 347 348 352
331 329 328 328 326 326 327 327 327 327 328 329 330 332 337 339 340 340 339 341 343 342 340 341 342 343 345 345 343 345 344 345 345 345 332 331 329 335 348 350 350 349 350
326 325 325 325 326 326 325 325 324 323 323 323 324 326 327 330 334 337 337 338 339 340 340 339 340 340 341 341 343 347 344 343 343 341 335 340 340 347 348 349 350 352 350
324 324 323 323 322 323 325 326 325 325 324 323 322 321 320 322 324 329 334 333 337 338 338 339 338 339 340 341 342 341 343 344 344 344 342 342 342 342 347 348 349 349 347
323 321 321 323 324 324 323 322 322 322 321 321 321 321 319 320 324 326 331 334 335 337 337 338 338 339 339 339 340 340 341 343 342 342 344 344 343 343 347 347 348 345 344
320 321 321 320 320 321 321 321 321 320 319 319 319 319 320 323 324 329 331 332 332 334 335 336 336 337 336 336 337 339 337 338 337 339 339 340 342 343 343 341 342 346 343
320 320 320 320 321 320 319 319 319 319 318 319 319 319 320 321 323 326 328 329 331 331 334 335 335 334 333 335 333 335 336 336 336 337 334 333 332 336 343 347 348 346 343
320 323 322 320 319 319 318 318 318 317 317 315 316 318 318 320 322 323 322 321 323 326 330 332 332 332 332 332 332 332 333 336 335 336 336 335 334 334 335 335 340 344 346
320 321 321 321 320 319 318 317 316 316 314 314 314 313 313 312 312 313 316 317 320 325 328 328 328 329 330 332 333 333 332 333 337 336 336 337 336 335 334 336 337 338 345
320 319 318 318 319 319 318 317 316 315 313 312 311 310 311 310 309 310 312 315 319 322 324 325 328 329 330 332 333 333 335 335 335 337 337 336 337 337 337 336 338 338 343
320 317 315 316 316 317 316 316 316 315 314 313 312 310 309 309 310 309 311 317 320 323 321 326 327 328 329 330 332 333 334 332 334 335 336 336 336 336 336 337 337 339 338
319 317 315 314 316 316 316 315 315 315 313 314 313 311 309 310 310 308 309 313 314 316 318 320 324 328 328 329 330 330 332 334 334 331 332 334 334 335 338 338 338 339 339
317 315 313 313 315 315 316 315 315 315 316 312 309 308 307 309 309 308 308 309 309 309 310 311 312 313 316 320 328 329 329 330 330 332 333 333 333 335 335 336 337 337 338
312 312 311 312 314 313 313 312 313 313 312 313 312 311 309 308 308 308 307 307 307 307 307 309 309 310 312 313 315 318 321 327 328 327 328 331 332 334 334 334 336 337 338
311 310 309 310 311 311 311 311 312 313 312 311 312 313 312 311 309 308 307 306 305 306 306 307 307 309 310 311 313 315 316 317 319 319 322 325 327 331 332 335 335 335 337
312 312 311 311 311 310 310 310 310 311 311 311 311 310 309 313 312 309 307 306 306 306 305 308 309 307 308 309 312 309 310 309 310 310 311 315 319 325 328 331 334 334 333
314 314 314 313 313 312 312 312 311 310 309 309 309 309 308 308 311 313 312 310 307 306 307 307 308 309 308 308 309 304 305 304 306 309 310 311 313 316 322 328 331 333 334
315 315 315 315 314 314 314 313 313 312 311 310 309 308 308 308 309 308 309 310 311 310 307 307 307 306 307 305 302 302 302 305 309 308 309 310 311 314 316 318 323 329 332
315 316 315 315 316 315 314 314 313 313 312 311 311 310 310 309 308 307 307 307 307 308 309 308 308 309 307 306 303 301 300 306 309 312 311 313 313 313 315 318 320 322 324
315 316 316 316 316 316 315 313 315 313 313 312 312 312 311 311 310 309 309 309 309 308 307 307 307 308 308 308 303 303 300 299 305 311 313 314 313 313 315 317 318 318 318
317 316 317 317 316 314 316 316 313 314 313 313 313 311 311 311 310 310 310 310 310 310 309 308 306 305 305 307 304 303 300 299 301 307 310 312 310 312 314 315 315 316 317
Wind_Speed
9 6 5 5 6 6 9 9 12 11 12 12 13 13 14 16 16 16 19 21 21 22 22 22 26 27 25 25 26 27 26 18 8 20 17 7 5 17 22 13 16 11 21
15 17 19 15 19 19 18 13 13 12 9 10 13 14 12 11 13 14 14 16 16 17 20 22 22 22 24 24 21 23 28 22 16 15 18 10 9 10 14 15 28 23 26
14 16 17 16 19 22 24 24 23 20 17 16 15 15 14 15 15 15 15 15 12 15 16 18 20 19 20 20 21 21 22 26 28 21 15 18 16 16 9 14 17 29 43
15 15 15 15 17 18 20 21 22 22 21 19 20 21 18 19 19 18 18 18 18 16 14 14 16 18 22 23 23 25 27 22 21 19 15 12 13 17 13 15 17 30 35
13 14 16 18 19 20 21 22 22 23 23 24 23 22 22 23 23 25 24 27 18 19 20 17 18 18 18 23 26 27 24 24 20 14 7 6 12 16 20 21 16 19 24
14 15 18 19 19 19 20 22 22 23 23 24 23 22 23 23 24 29 27 18 15 18 17 18 19 20 22 21 24 27 29 27 24 14 10 9 16 16 22 24 19 14 10
14 14 15 16 18 19 19 20 21 24 26 27 28 27 26 25 25 27 29 30 26 23 19 19 19 19 15 14 15 17 16 21 30 26 21 14 17 28 25 22 20 18 16
14 14 15 17 18 20 21 21 23 23 24 25 27 28 29 29 27 28 28 27 29 26 24 24 22 21 21 18 13 11 11 13 16 29 27 24 27 25 21 23 20 19 19
14 16 17 17 19 19 20 19 20 21 22 23 22 26 31 33 32 29 28 27 22 23 24 28 28 26 24 22 19 17 13 15 16 20 24 26 26 30 25 20 20 15 11
17 15 16 16 17 18 20 21 20 21 22 24 26 24 28 29 31 27 27 25 20 20 22 27 28 35 28 25 24 21 19 23 20 16 23 26 28 28 24 25 24 16 13
14 15 16 18 18 16 19 20 19 19 23 22 24 25 28 25 31 21 17 19 18 19 19 22 23 17 18 23 25 21 22 24 19 19 16 13 16 21 27 31 34 30 23
14 15 15 17 16 17 19 18 19 17 20 21 22 23 24 25 22 20 21 20 18 18 17 18 19 16 16 16 16 21 22 28 22 20 20 20 22 23 24 30 32 34 36
17 13 13 15 17 17 18 19 20 19 17 21 21 21 23 26 29 20 23 25 24 22 17 15 17 20 18 20 20 21 24 29 28 22 21 21 24 25 28 32 28 33 36
15 15 15 15 16 15 17 19 19 20 21 19 18 20 20 22 24 31 29 30 26 22 20 21 20 22 25 23 21 24 27 27 27 27 27 27 26 26 29 29 29 28 28
13 12 14 16 18 18 16 16 17 18 18 16 18 19 20 21 24 26 24 27 27 24 25 20 17 18 19 20 20 23 20 22 27 30 30 29 27 26 27 28 29 26 28
13 14 14 13 13 15 16 17 16 18 20 13 21 25 26 24 23 26 24 23 22 19 16 17 17 16 18 21 20 19 19 23 25 26 25 30 31 28 27 28 28 26 24
13 7 12 11 9 11 13 13 16 17 14 15 20 25 28 26 28 32 26 18 20 20 16 19 20 17 18 24 23 20 21 20 22 25 25 25 27 29 27 24 20 18 16
16 6 16 16 15 11 9 9 11 13 11 12 15 20 24 24 26 29 31 24 25 25 20 19 20 21 22 29 17 18 17 17 15 15 17 21 24 26 28 28 25 20 16
12 10 13 16 14 16 16 18 18 16 19 11 11 13 16 22 25 28 30 23 20 20 22 22 23 23 22 23 24 23 24 19 15 17 17 18 20 21 25 24 23 21 20
14 11 15 15 16 16 18 18 18 16 16 19 20 11 8 11 17 19 25 24 22 21 23 24 25 25 23 22 21 21 20 20 20 19 17 16 15 18 21 20 25 22 19
14 13 13 13 14 17 16 17 18 17 19 20 20 16 15 3 7 10 16 19 22 24 24 29 30 26 26 23 21 25 21 22 23 21 18 16 16 16 19 21 20 22 20
21 13 12 10 10 15 12 16 16 17 17 19 20 21 18 18 15 8 8 12 16 17 21 23 25 25 25 22 20 25 21 24 25 24 23 22 18 16 17 20 20 19 15
19 23 14 14 11 15 12 16 14 14 15 17 18 18 19 22 20 20 19 13 12 16 20 20 18 14 18 23 26 29 28 30 30 22 20 22 19 20 22 20 20 20 17
19 16 17 14 14 15 16 16 14 15 15 17 15 16 17 19 20 21 19 20 21 20 13 17 21 19 15 13 23 29 31 30 27 25 21 20 21 20 20 20 20 16 17
18 17 19 21 21 15 10 13 20 17 16 15 15 16 18 17 16 19 19 19 21 24 20 18 14 17 20 10 19 29 31 31 28 26 25 21 18 17 18 18 18 19 20
17 18 24 11 18 18 25 13 13 20 15 16 14 15 17 15 17 19 19 24 24 23 22 23 20 21 19 12 23 29 30 30 30 24 24 19 16 18 20 22 22 22 21
Wind_Direction
47 7 294 279 281 285 286 293 287 294 295 294 301 290 292 289 288 285 273 272 257 258 257 247 245 247 248 249 252 254 255 237 233 263 268 299 272 270 264 278 267 249 251
10 357 8 1 357 354 347 329 306 287 296 305 299 284 284 282 286 282 279 283 282 274 263 263 257 248 247 243 246 249 254 252 239 255 265 265 248 270 294 293 268 283 297
357 353 350 349 351 344 340 342 340 328 318 304 310 307 304 291 282 276 269 276 275 282 282 278 273 268 252 241 237 240 240 251 245 251 246 256 258 275 290 283 270 273 269
3 345 338 356 346 338 332 332 337 338 337 328 303 293 301 295 285 277 271 260 260 266 267 276 281 272 262 258 253 252 247 245 237 242 249 255 264 269 265 242 244 257 259
354 340 4 8 1 352 347 342 340 337 331 328 327 318 307 289 288 275 273 261 251 261 268 270 271 274 274 265 258 261 257 243 230 227 255 293 291 280 265 256 246 259 257
8 7 2 355 345 339 336 335 334 332 332 331 328 320 311 304 292 285 290 300 272 262 265 267 267 273 278 276 269 270 265 259 252 225 243 247 285 265 265 263 248 238 256
355 2 346 345 336 329 327 330 335 335 333 329 324 320 316 309 301 299 298 301 290 277 275 272 269 273 277 280 292 268 270 256 244 235 192 202 239 258 260 257 253 255 240
2 352 343 337 337 342 341 340 336 331 330 324 318 316 315 310 309 308 299 299 300 286 273 273 268 264 265 264 262 259 265 262 235 216 219 245 240 246 247 254 262 259 265
353 347 344 340 334 332 324 335 337 335 327 321 316 315 313 307 307 304 304 298 299 300 282 269 261 259 256 254 237 231 239 256 259 248 246 252 254 249 248 250 246 233 257
347 338 334 335 336 336 337 335 334 334 329 326 321 317 312 306 304 297 304 298 297 292 289 278 270 258 252 257 239 239 225 234 232 237 238 243 248 247 243 239 239 247 259
345 343 345 342 337 335 335 335 334 336 333 329 325 322 320 319 327 305 335 323 310 303 288 286 273 302 284 273 276 244 240 252 242 238 243 252 256 255 254 249 245 235 241
357 357 352 351 351 348 344 339 340 340 338 333 331 328 329 329 335 341 3 349 350 333 291 278 287 294 312 280 286 273 253 248 244 251 244 247 253 260 251 243 247 246 242
350 345 4 3 1 360 357 355 354 350 351 349 345 345 337 334 344 336 335 331 327 323 321 311 290 288 293 282 274 269 261 250 240 236 241 240 245 250 259 263 266 252 249
350 349 4 357 357 14 7 7 4 8 356 351 353 348 341 343 342 341 335 331 322 317 313 311 306 297 294 290 280 263 255 247 233 227 238 247 248 251 253 255 254 258 232
342 4 2 360 353 6 4 7 9 7 12 14 4 350 341 336 333 335 331 325 318 307 301 300 292 282 281 274 269 268 269 253 238 237 242 249 252 250 247 250 251 250 232
350 10 352 359 360 358 354 351 349 356 4 360 18 13 360 353 348 345 341 337 338 316 302 293 290 291 292 291 292 273 275 270 271 260 259 247 246 247 247 248 251 236 244
326 341 351 350 357 349 353 350 343 332 9 8 3 4 2 5 6 3 2 4 360 19 360 355 347 318 323 299 286 286 279 280 289 288 286 279 280 277 259 250 257 267 260
319 351 1 339 333 344 329 333 333 319 329 10 4 359 1 13 11 9 19 17 12 13 7 356 348 343 343 342 330 316 304 291 309 326 312 297 286 288 264 256 254 259 266
359 7 350 341 344 352 347 345 339 354 345 342 342 341 352 11 21 22 26 19 12 5 359 356 353 350 349 349 348 348 351 323 308 308 305 303 294 270 254 250 257 253 249
351 9 356 345 356 2 346 344 338 343 347 341 341 345 332 354 13 16 23 18 8 7 9 9 356 354 349 1 359 2 359 359 357 356 357 353 345 332 321 273 244 249 241
356 3 3 1 1 2 338 343 338 352 351 342 344 356 351 346 347 10 16 18 20 17 9 21 17 2 357 0 7 6 4 357 2 357 350 341 342 324 329 321 308 265 245
317 350 358 360 7 346 344 352 342 1 346 346 347 353 350 340 347 357 354 358 6 15 19 21 21 15 16 14 5 4 6 359 355 354 355 352 347 331 326 309 317 323 318
312 313 340 347 354 341 356 345 355 353 348 354 351 354 357 346 348 2 354 358 340 343 1 357 348 356 10 10 13 7 2 1 354 346 343 342 343 342 342 331 320 315 316
310 327 329 334 337 331 336 340 356 355 2 352 350 353 359 343 349 357 353 1 354 341 336 354 350 342 336 351 6 5 1 356 354 351 341 335 335 336 330 335 319 325 316
313 322 324 336 319 323 348 309 339 353 354 346 356 360 350 336 352 352 343 356 352 340 347 344 346 351 344 334 356 354 351 353 351 347 340 330 323 330 324 318 322 324 323
322 323 310 318 310 319 299 288 343 298 342 341 359 358 336 349 358 351 356 354 347 340 348 342 347 350 350 338 342 340 341 344 350 342 338 336 336 334 325 333 328 320 313